Location: Chuathbaluk
(61.5726°N, 159.2454°W)
Time: 11:50:22
(UTC+00:00)

N. Korean satellite - Pass Details

Date: 03 November 2020
Orbit: 453 x 503 km, 97.2° (Epoch: 04 December)

Event Time Altitude Azimuth Distance (km) Brightness Sun altitude
Rises 16:23:13 0° 17° (NNE) 2,488 10.3 -13.1°
Reaches altitude 10° 16:25:17 10° 20° (NNE) 1,608 9.3 -12.9°
Maximum altitude 16:28:42 67° 103° (ESE) 502 6.8 -12.5°
Drops below altitude 10° 16:32:07 10° 187° (S) 1,598 9.2 -12.1°
Sets 16:34:10 0° 191° (S) 2,471 10.2 -11.9°
